Weather History for Hailey, ID

Change the Weather History Date:

Wednesday, February 13, 2013

  Actual Average Record
Temperature  
Mean Temperature 30 °F -  
Max Temperature 42 °F 36 °F 48 °F (1999)
Min Temperature 19 °F 15 °F 0 °F (2004)
Degree Days  
Heating Degree Days 34    
Moisture  
Dew Point 21 °F    
Average Humidity 79    
Maximum Humidity 93    
Minimum Humidity 53    
Precipitation  
Precipitation 0.00 in - - ()
Sea Level Pressure  
Sea Level Pressure 30.18 in    
Wind  
Wind Speed 5 mph (NW)    
Max Wind Speed 14 mph    
Max Gust Speed -    
Visibility 10 miles    
Events      
Averages and records for this station are not official NWS values.
T = Trace of Precipitation, MM = Missing Value Source: NWS Daily Summary

Daily Weather History Graph

Daily Weather History Graph

Search for Another Location

Airport:

Trip Planner

Search our weather history database for the weather conditions in past years. The results will help you decide how hot, cold, wet, or windy it might be!

Date:

Astronomy

Feb. 13, 2013 Rise Set
Actual Time 7:37 AM MST 6:05 PM MST
Civil Twilight 7:08 AM MST 6:34 PM MST
Nautical Twilight 6:34 AM MST 7:08 PM MST
Astronomical Twilight 6:01 AM MST 7:41 PM MST
Moon 9:00 AM MST (2/13) 10:22 PM MST (2/13)
Length of Visible Light 11h 26m
Length of Day
10h 27m
Waxing Crescent, 14% of the Moon is Illuminated
Feb 13
Waxing Crescent
Feb 17
First Quarter
Feb 25
Full
Mar 4
Last Quarter
Mar 11
New

Hourly Weather History & Observations

Time (MST) Temp. Windchill Dew Point Humidity Pressure Visibility Wind Dir Wind Speed Gust Speed Precip Events Conditions
12:15 AM 23.0 °F 17.0 °F 19.4 °F 86% 30.24 in 10.0 mi North 4.6 mph - N/A   Clear
12:35 AM 23.0 °F - 19.4 °F 86% 30.24 in 10.0 mi Calm Calm - N/A   Clear
12:55 AM 23.0 °F 18.4 °F 19.4 °F 86% 30.25 in 10.0 mi NNW 3.5 mph - N/A   Clear
1:15 AM 23.0 °F 18.4 °F 19.4 °F 86% 30.24 in 10.0 mi WNW 3.5 mph - N/A   Clear
1:35 AM 23.0 °F 15.8 °F 19.4 °F 86% 30.24 in 10.0 mi NNW 5.8 mph - N/A   Clear
1:55 AM 23.0 °F 13.9 °F 19.4 °F 86% 30.24 in 10.0 mi NW 8.1 mph - N/A   Scattered Clouds
2:15 AM 23.0 °F 13.9 °F 19.4 °F 86% 30.23 in 10.0 mi WNW 8.1 mph - N/A   Scattered Clouds
2:35 AM 23.0 °F 15.8 °F 19.4 °F 86% 30.23 in 10.0 mi NW 5.8 mph - N/A   Scattered Clouds
2:55 AM 23.0 °F 13.1 °F 19.4 °F 86% 30.22 in 10.0 mi NW 9.2 mph - N/A   Scattered Clouds
3:15 AM 23.0 °F 12.4 °F 19.4 °F 86% 30.21 in 10.0 mi NW 10.4 mph - N/A   Clear
3:35 AM 23.0 °F 12.4 °F 19.4 °F 86% 30.20 in 10.0 mi NW 10.4 mph - N/A   Scattered Clouds
3:55 AM 23.0 °F 15.8 °F 19.4 °F 86% 30.21 in 10.0 mi WNW 5.8 mph - N/A   Scattered Clouds
4:15 AM 23.0 °F - 19.4 °F 86% 30.21 in 10.0 mi Calm Calm - N/A   Scattered Clouds
4:35 AM 23.0 °F 15.8 °F 19.4 °F 86% 30.21 in 10.0 mi NNW 5.8 mph - N/A   Mostly Cloudy
4:55 AM 23.0 °F 14.7 °F 19.4 °F 86% 30.21 in 10.0 mi NNW 6.9 mph - N/A   Overcast
5:15 AM 23.0 °F - 19.4 °F 86% 30.21 in 10.0 mi Calm Calm - N/A   Overcast
5:35 AM 23.0 °F 17.0 °F 19.4 °F 86% 30.20 in 10.0 mi NW 4.6 mph - N/A   Overcast
5:55 AM 23.0 °F - 19.4 °F 86% 30.20 in 10.0 mi Calm Calm - N/A   Overcast
6:47 AM 21.2 °F 16.4 °F 19.4 °F 93% 30.19 in 10.0 mi WNW 3.5 mph - N/A   Mostly Cloudy
7:47 AM 19.4 °F - 17.6 °F 93% 30.20 in 10.0 mi Calm Calm - N/A   Scattered Clouds
8:47 AM 21.2 °F 16.4 °F 19.4 °F 93% 30.20 in 10.0 mi WNW 3.5 mph - N/A   Scattered Clouds
9:47 AM 26.6 °F 20.0 °F 21.2 °F 80% 30.19 in 10.0 mi NW 5.8 mph - N/A   Scattered Clouds
10:47 AM 30.2 °F 24.3 °F 23.0 °F 75% 30.19 in 10.0 mi East 5.8 mph - N/A   Partly Cloudy
11:47 AM 35.6 °F 26.6 °F 28.4 °F 75% 30.17 in 10.0 mi SE 13.8 mph - N/A   Scattered Clouds
2:47 PM 42.8 °F 36.6 °F 26.6 °F 53% 30.11 in 10.0 mi SSW 11.5 mph - N/A   Scattered Clouds
3:50 PM 42.8 °F 37.0 °F 26.6 °F 53% 30.11 in 10.0 mi SSW 10.4 mph - N/A   Scattered Clouds
5:47 PM 39.2 °F 32.0 °F 26.6 °F 61% 30.11 in 10.0 mi SSW 11.5 mph - N/A   Scattered Clouds
6:47 PM 35.6 °F - 26.6 °F 70% 30.11 in 10.0 mi Calm Calm - N/A   Scattered Clouds
7:47 PM 35.6 °F 31.7 °F 23.0 °F 60% 30.11 in 10.0 mi ENE 4.6 mph - N/A   Scattered Clouds
8:47 PM 30.2 °F - 24.8 °F 80% 30.12 in 10.0 mi Calm Calm - N/A   Clear
9:47 PM 30.2 °F 23.4 °F 21.2 °F 69% 30.13 in 10.0 mi SSE 6.9 mph - N/A   Clear
10:15 PM 30.2 °F - 23.0 °F 75% 30.13 in 10.0 mi Calm Calm - N/A   Clear
10:35 PM 32.0 °F - 21.2 °F 64% 30.14 in 10.0 mi Calm Calm - N/A   Clear
10:47 PM 30.2 °F - 21.2 °F 69% 30.15 in 10.0 mi Calm Calm - N/A   Clear
10:55 PM 30.2 °F - 23.0 °F 75% 30.15 in 10.0 mi Calm Calm - N/A   Clear
11:15 PM 30.2 °F - 21.2 °F 69% 30.16 in 10.0 mi Calm Calm - N/A   Clear
11:35 PM 30.2 °F - 21.2 °F 69% 30.16 in 10.0 mi Calm Calm - N/A   Clear
11:55 PM 28.4 °F - 21.2 °F 74% 30.17 in 10.0 mi Calm Calm - N/A   Clear